When you browse on this site, cookies collect data to enhance your experience and personalize the content and advertising you see.
Visit our Privacy Policy to learn more. By continuing to use the site, you agree to this use of cookies and data.
  • In Hungary
  • List of Countries
  • For 7 days
  • Water Temperature
  • Weather Map
  • News
  • Weather Widgets
  • user-avatar
    Login

    Hourly Weather Vochepshiy

    Today, 14 October, Monday

    Time Temperature Precipitation Wind Pressure Humidity
    00:00 +13°C° 0 mm 0 mps 765 mmHg 64%
    01:00 +12°C° 0 mm 0 mps 765 mmHg 65%
    02:00 +12°C° 0 mm 0 mps 765 mmHg 66%
    03:00 +12°C° 0 mm 0 mps 765 mmHg 66%
    04:00 +13°C° 0 mm 1 mps 765 mmHg 67%
    05:00 +12°C° 0 mm 1 mps 765 mmHg 68%
    06:00 +12°C° 0 mm 1 mps 765 mmHg 69%
    07:00 +14°C° 0 mm 1 mps 765 mmHg 64%
    08:00 +15°C° 0 mm 1 mps 765 mmHg 59%
    09:00 +18°C° 0 mm 1 mps 765 mmHg 53%
    10:00 +19°C° 0 mm 2 mps 765 mmHg 48%
    11:00 +20°C° 0 mm 2 mps 765 mmHg 42%
    12:00 +23°C° 0 mm 2 mps 764 mmHg 37%
    13:00 +24°C° 0 mm 2 mps 764 mmHg 36%
    14:00 +24°C° 0 mm 2 mps 764 mmHg 35%
    15:00 +25°C° 0 mm 2 mps 764 mmHg 34%
    16:00 +23°C° 0 mm 2 mps 763 mmHg 39%
    17:00 +20°C° 0 mm 2 mps 763 mmHg 44%
    18:00 +19°C° 0 mm 2 mps 763 mmHg 49%
    19:00 +18°C° 0 mm 2 mps 763 mmHg 52%
    20:00 +17°C° 0 mm 2 mps 763 mmHg 54%
    21:00 +16°C° 0 mm 2 mps 763 mmHg 56%
    22:00 +16°C° 0 mm 2 mps 763 mmHg 58%
    23:00 +15°C° 0 mm 2 mps 762 mmHg 60%

    Tomorrow, 15 October, Tuesday

    Time Temperature Precipitation Wind Pressure Humidity
    00:00 +15°C° 0 mm 1 mps 762 mmHg 61%
    01:00 +14°C° 0 mm 1 mps 762 mmHg 62%
    02:00 +14°C° 0 mm 1 mps 762 mmHg 63%
    03:00 +14°C° 0 mm 1 mps 762 mmHg 63%
    04:00 +13°C° 0 mm 1 mps 762 mmHg 64%
    05:00 +13°C° 0 mm 1 mps 761 mmHg 64%
    06:00 +13°C° 0 mm 1 mps 761 mmHg 64%
    07:00 +14°C° 0 mm 0 mps 761 mmHg 60%
    08:00 +15°C° 0 mm 0 mps 762 mmHg 55%
    09:00 +17°C° 0 mm 0 mps 762 mmHg 51%
    10:00 +21°C° 0 mm 1 mps 762 mmHg 46%
    11:00 +23°C° 0 mm 1 mps 761 mmHg 41%
    12:00 +25°C° 0 mm 1 mps 761 mmHg 36%
    13:00 +25°C° 0 mm 1 mps 761 mmHg 35%
    14:00 +26°C° 0 mm 1 mps 761 mmHg 35%
    15:00 +26°C° 0 mm 2 mps 760 mmHg 34%
    16:00 +24°C° 0 mm 1 mps 760 mmHg 39%
    17:00 +22°C° 0 mm 1 mps 760 mmHg 44%
    18:00 +20°C° 0 mm 1 mps 760 mmHg 49%
    19:00 +20°C° 0 mm 1 mps 760 mmHg 51%
    20:00 +19°C° 0 mm 1 mps 760 mmHg 52%
    21:00 +18°C° 0 mm 1 mps 760 mmHg 54%
    22:00 +18°C° 0 mm 1 mps 760 mmHg 55%
    23:00 +16°C° 0 mm 1 mps 760 mmHg 57%

    Day after tomorrow, 16 October, Wednesday

    Time Temperature Precipitation Wind Pressure Humidity
    00:00 +16°C° 0 mm 1 mps 760 mmHg 59%
    01:00 +15°C° 0 mm 1 mps 760 mmHg 60%
    02:00 +15°C° 0 mm 1 mps 760 mmHg 61%
    03:00 +15°C° 0 mm 1 mps 760 mmHg 63%
    04:00 +14°C° 0 mm 1 mps 760 mmHg 64%
    05:00 +14°C° 0 mm 1 mps 760 mmHg 65%
    06:00 +14°C° 0 mm 1 mps 760 mmHg 67%
    07:00 +15°C° 0 mm 1 mps 760 mmHg 63%
    08:00 +18°C° 0 mm 1 mps 760 mmHg 59%
    09:00 +19°C° 0 mm 1 mps 760 mmHg 55%
    10:00 +20°C° 0 mm 2 mps 760 mmHg 50%
    11:00 +23°C° 0 mm 2 mps 760 mmHg 45%
    12:00 +25°C° 0 mm 2 mps 760 mmHg 40%
    13:00 +25°C° 0 mm 2 mps 760 mmHg 38%
    14:00 +26°C° 0 mm 3 mps 759 mmHg 37%
    15:00 +26°C° 0 mm 3 mps 759 mmHg 36%
    16:00 +25°C° 0 mm 3 mps 759 mmHg 41%
    17:00 +23°C° 0 mm 2 mps 759 mmHg 47%
    18:00 +20°C° 0 mm 2 mps 759 mmHg 52%
    19:00 +19°C° 0 mm 2 mps 759 mmHg 54%
    20:00 +18°C° 0 mm 3 mps 759 mmHg 57%
    21:00 +17°C° 0 mm 3 mps 760 mmHg 59%
    22:00 +17°C° 0 mm 3 mps 759 mmHg 60%
    23:00 +16°C° 0 mm 3 mps 759 mmHg 61%

    17 October, Thursday

    Time Temperature Precipitation Wind Pressure Humidity
    00:00 +16°C° 0 mm 3 mps 759 mmHg 61%
    01:00 +15°C° 0 mm 2 mps 759 mmHg 64%
    02:00 +15°C° 0 mm 2 mps 759 mmHg 67%
    03:00 +14°C° 0 mm 2 mps 759 mmHg 69%
    04:00 +14°C° 0 mm 2 mps 759 mmHg 72%
    05:00 +13°C° 0 mm 1 mps 759 mmHg 75%
    06:00 +13°C° 0 mm 1 mps 759 mmHg 78%
    07:00 +15°C° 0 mm 1 mps 759 mmHg 74%
    08:00 +16°C° 0 mm 1 mps 759 mmHg 69%
    09:00 +18°C° 0 mm 1 mps 759 mmHg 65%
    10:00 +20°C° 0 mm 1 mps 759 mmHg 58%
    11:00 +22°C° 0 mm 1 mps 759 mmHg 52%
    12:00 +24°C° 0 mm 1 mps 759 mmHg 45%
    13:00 +25°C° 0 mm 1 mps 759 mmHg 43%
    14:00 +26°C° 0 mm 1 mps 759 mmHg 42%
    15:00 +26°C° 0 mm 1 mps 758 mmHg 40%
    16:00 +24°C° 0 mm 1 mps 758 mmHg 46%
    17:00 +20°C° 0 mm 0 mps 758 mmHg 52%
    18:00 +18°C° 0 mm 0 mps 758 mmHg 58%
    19:00 +18°C° 0 mm 0 mps 758 mmHg 60%
    20:00 +17°C° 0 mm 0 mps 758 mmHg 62%
    21:00 +19°C° 0 mm 1 mps 758 mmHg 64%
    22:00 +18°C° 0 mm 1 mps 758 mmHg 65%
    23:00 +18°C° 0 mm 1 mps 758 mmHg 66%

    18 October, Friday

    Time Temperature Precipitation Wind Pressure Humidity
    00:00 +16°C° 0 mm 1 mps 758 mmHg 68%
    01:00 +16°C° 0 mm 1 mps 758 mmHg 69%
    02:00 +15°C° 0 mm 1 mps 758 mmHg 70%
    03:00 +14°C° 0 mm 0 mps 758 mmHg 72%
    04:00 +14°C° 0 mm 0 mps 758 mmHg 73%
    05:00 +13°C° 0 mm 0 mps 758 mmHg 74%
    06:00 +13°C° 0 mm 0 mps 758 mmHg 75%
    07:00 +15°C° 0 mm 0 mps 758 mmHg 69%
    08:00 +18°C° 0 mm 1 mps 758 mmHg 64%
    09:00 +20°C° 0 mm 1 mps 758 mmHg 59%
    10:00 +21°C° 0 mm 1 mps 758 mmHg 54%
    11:00 +23°C° 0 mm 1 mps 758 mmHg 49%
    12:00 +25°C° 0 mm 2 mps 758 mmHg 44%
    13:00 +25°C° 0 mm 2 mps 758 mmHg 43%
    14:00 +25°C° 0 mm 2 mps 758 mmHg 42%
    15:00 +26°C° 0 mm 2 mps 758 mmHg 41%
    16:00 +24°C° 0 mm 2 mps 758 mmHg 46%
    17:00 +22°C° 0 mm 1 mps 758 mmHg 50%
    18:00 +21°C° 0 mm 1 mps 758 mmHg 55%
    19:00 +20°C° 0 mm 1 mps 758 mmHg 58%
    20:00 +19°C° 0 mm 1 mps 758 mmHg 60%
    21:00 +19°C° 0 mm 1 mps 759 mmHg 62%
    22:00 +18°C° 0 mm 1 mps 759 mmHg 65%
    23:00 +18°C° 0 mm 1 mps 759 mmHg 68%

    19 October, Saturday

    Time Temperature Precipitation Wind Pressure Humidity
    00:00 +16°C° 0 mm 1 mps 759 mmHg 70%
    01:00 +16°C° 0 mm 1 mps 759 mmHg 71%
    02:00 +16°C° 0 mm 1 mps 759 mmHg 72%
    03:00 +15°C° 0 mm 1 mps 759 mmHg 72%
    04:00 +15°C° 0 mm 1 mps 759 mmHg 72%
    05:00 +15°C° 0 mm 1 mps 760 mmHg 72%
    06:00 +15°C° 0 mm 1 mps 760 mmHg 72%
    07:00 +16°C° 0 mm 1 mps 760 mmHg 69%
    08:00 +16°C° 0 mm 1 mps 760 mmHg 67%
    09:00 +18°C° 0 mm 1 mps 760 mmHg 64%
    10:00 +19°C° 0 mm 2 mps 760 mmHg 59%
    11:00 +20°C° 0 mm 2 mps 760 mmHg 54%
    12:00 +23°C° 0 mm 2 mps 760 mmHg 49%
    13:00 +23°C° 0 mm 2 mps 760 mmHg 48%
    14:00 +24°C° 0 mm 2 mps 760 mmHg 46%
    15:00 +25°C° 0 mm 2 mps 760 mmHg 45%
    16:00 +23°C° 0 mm 2 mps 760 mmHg 49%
    17:00 +21°C° 0 mm 2 mps 760 mmHg 53%
    18:00 +19°C° 0 mm 3 mps 760 mmHg 58%
    19:00 +19°C° 0 mm 3 mps 760 mmHg 58%
    20:00 +18°C° 0 mm 3 mps 760 mmHg 59%
    21:00 +17°C° 0 mm 3 mps 760 mmHg 59%
    22:00 +16°C° 0 mm 3 mps 760 mmHg 61%
    23:00 +16°C° 0 mm 3 mps 760 mmHg 63%
    Show more